This is the latest recevied weather packets stored in our database for station/object SQ7IQO. If no packets are shown the sender has not sent any weather packets the latest 10 day(s).
| Time | Temp. | Humidity | Pressure | Rain* | Wind** | Luminosity | Snow |
|---|---|---|---|---|---|---|---|
| 1788106544 | 25.56° C | 50% | 1014.8 hPa | 0 mm | 0 m/s | - | - |
| 1788106484 | 25.56° C | 49% | 1014.8 hPa | 0 mm | 0 m/s | - | - |
| 1788106424 | 25.56° C | 50% | 1014.8 hPa | 0 mm | 0 m/s | - | - |
| 1788106364 | 25.56° C | 48% | 1014.8 hPa | 0 mm | 0 m/s | - | - |
| 1788106304 | 25.56° C | 48% | 1014.8 hPa | 0 mm | 0 m/s | - | - |
| 1788106244 | 25.56° C | 49% | 1014.8 hPa | 0 mm | 0 m/s | - | - |
| 1788106184 | 25.56° C | 48% | 1014.8 hPa | 0 mm | 0 m/s | - | - |
| 1788106124 | 25.56° C | 48% | 1014.8 hPa | 0 mm | 0 m/s | - | - |
| 1788106064 | 25.56° C | 48% | 1009.5 hPa | 0 mm | 0 m/s | - | - |
| 1788106004 | 26.11° C | 48% | 1014.8 hPa | 0 mm | 0 m/s | - | - |
| 1788105944 | 26.11° C | 47% | 1014.9 hPa | 0 mm | 0 m/s | - | - |
| 1788105884 | 26.11° C | 47% | 1014.8 hPa | 0 mm | 0 m/s | - | - |
| 1788105824 | 26.67° C | 48% | 1014.8 hPa | 0 mm | 0 m/s | - | - |
| 1788105764 | 26.67° C | 46% | 1014.8 hPa | 0 mm | 0 m/s | - | - |
| 1788105704 | 27.22° C | 46% | 1014.8 hPa | 0 mm | 0 m/s | - | - |
| 1788105644 | 27.22° C | 46% | 1010 hPa | 0 mm | 0 m/s | - | - |
| 1788105584 | 27.22° C | 47% | 1014.8 hPa | 0 mm | 0 m/s | - | - |
| 1788105524 | 26.67° C | 48% | 1014.8 hPa | 0 mm | 0 m/s | - | - |
| 1788105464 | 26.67° C | 47% | 1014.8 hPa | 0 mm | 0 m/s | - | - |
| 1788105404 | 26.67° C | 47% | 1014.8 hPa | 0 mm | 0 m/s | - | - |
| 1788105344 | 26.11° C | 48% | 1014.8 hPa | 0 mm | 0 m/s | - | - |
| 1788105284 | 26.11° C | 49% | 1014.8 hPa | 0 mm | 0 m/s | - | - |
| 1788105224 | 26.67° C | 48% | 1014.8 hPa | 0 mm | 0 m/s | - | - |
| 1788105164 | 26.67° C | 48% | 1014.8 hPa | 0 mm | 0 m/s | - | - |
| 1788105104 | 26.67° C | 47% | 1014.8 hPa | 0 mm | 0 m/s | - | - |
* Rain latest hour (hover to see other rain measurements)
** Current wind speed in m/s (hover to see current wind gust speed)